3bir.net alexa rank chart, 3bir.net alexa rank daily changes

3bir.net alexa rank chart, 3bir.net alexa rank daily changes

3bir.net
Actual rank:
68 255

RANK HISTORY

Date Rank Diff
2017/12/11 68 255 -66
2017/12/10 68 321 -775
2017/12/09 69 096 +1 125
2017/12/08 67 971 -445
2017/12/07 68 416 +421
2017/12/06 67 995 +1 174
2017/12/05 66 821 +865
2017/12/04 65 956 -1 128
2017/12/03 67 084 +228
2017/12/02 66 856 +1 168
2017/12/01 65 688 +333
2017/11/30 65 355 +199
2017/11/29 65 156 +149
2017/11/28 65 007 +405
2017/11/27 64 602 +287
2017/11/26 64 315 +446
2017/11/25 63 869 +751
2017/11/24 63 118 +33
2017/11/23 63 085 +333
2017/11/22 62 752 +764
2017/11/21 61 988 +18
2017/11/20 61 970 +265
2017/11/19 61 705 +34
2017/11/18 61 671 +918
2017/11/17 60 753 +420
2017/11/16 60 333 +287
2017/11/15 60 046 +73
2017/11/14 59 973 +90
2017/11/13 59 883 -350
2017/11/12 60 233 -84
2017/11/11 60 317 +275
2017/11/10 60 042 +1 050
2017/11/09 58 992 +37
2017/11/08 58 955 -93
2017/11/07 59 048 -159
2017/11/06 59 207 -286
2017/11/05 59 493 -579
2017/11/04 60 072 +258
2017/11/03 59 814 +689
2017/11/02 59 125 -245
2017/11/01 59 370 -223
2017/10/31 59 593 -259
2017/10/30 59 852 -1 218
2017/10/29 61 070 -74
2017/10/28 61 144 +8
2017/10/27 61 136 -100
2017/10/26 61 236 -560
2017/10/25 61 796 +6
2017/10/24 61 790 +127
2017/10/23 61 663 -166
2017/10/22 61 829 -742
2017/10/21 62 571 +25
2017/10/20 62 546 -1 048
2017/10/19 63 594 -736
2017/10/18 64 330 -467
2017/10/17 64 797 -93
2017/10/16 64 890 -913
2017/10/14 65 803 +540
2017/10/13 65 263 -1 048
2017/10/12 66 311

WIDGET FOR YOUR SITE

DOMAINS WITH THE NEAREST RANK

Domain Rank
meiriyiwen.com 68 250
tabloidpulsa.co.id 68 251
kn-online.de 68 252
mytemplates.co 68 253
netsh.org 68 254
3bir.net 68 255
amateursteen.net 68 256
descargavideos.tv 68 257
marketup.com 68 258
motorola.com.mx 68 259
imgdew.com 68 260

DOMAINS WITH THE NEAREST RANK BY TLD .net

Domain Rank
usafiles.net 68 168
esysco.net 68 174
jhpds.net 68 186
365shares.net 68 188
netewe.net 68 215
3bir.net 68 255
amateursteen.net 68 256
4schools.net 68 281
zgsou.net 68 304
sidalc.net 68 335
rui2.net 68 360